Location: Mapua
(41.2500°S, 173.1000°E)
Time: 14:01:43
(UTC+12:00)

ISS - Visible Passes

Search period start: 01 July 2022 00:00
Search period end: 11 July 2022 00:00
Orbit: 414 x 420 km, 51.6° (Epoch: 30 June)

Date Brightness Start Highest point End Pass type
(mag) Time Alt. Az. Time Alt. Az. Time Alt. Az.
01 Jul -1.6 18:57:16 10° SSW 18:58:46 17° S 18:58:46 17° S visible
02 Jul -1.8 18:09:09 10° SSW 18:11:29 17° SSE 18:12:40 15° SE visible
02 Jul -0.5 19:45:30 10° SW 19:45:36 11° SW 19:45:36 11° SW visible
03 Jul -2.3 18:57:24 10° SW 18:59:35 28° S 18:59:35 28° S visible
04 Jul -2.4 18:09:19 10° SW 18:12:12 25° SSE 18:13:41 18° ESE visible
04 Jul -0.9 19:45:49 10° WSW 19:46:38 16° WSW 19:46:38 16° WSW visible
05 Jul -3.8 18:57:33 10° SW 19:00:53 78° S 19:00:53 78° S visible
06 Jul -3.5 18:09:22 10° SW 18:12:42 48° SSE 18:15:21 15° ENE visible
06 Jul -1.0 19:46:36 10° W 19:48:20 19° WNW 19:48:20 19° WNW visible
07 Jul -2.2 18:57:57 10° WSW 19:01:07 36° NW 19:03:08 18° NNE visible
08 Jul -3.3 18:09:32 10° WSW 18:12:55 64° NW 18:16:16 10° NE visible
09 Jul -0.5 18:59:19 10° W 19:00:58 13° NW 19:02:36 10° NNW visible
10 Jul -1.0 18:10:07 10° W 18:12:51 22° NW 18:15:33 10° N visible
